Location: Gleizolles
(44.4833°N, 6.7667°E)
Time: 02:38:33
(UTC+00:00)

Vanguard 1 Rocket - Pass Details

Date: 01 July 2024
Orbit: 650 x 4219 km, 34.3° (Epoch: 15 July)

Event Time Altitude Azimuth Distance (km) Brightness Sun altitude
Rises 22:33:34 0° 224° (SW) 4,033 - -21.0°
Reaches altitude 10° 22:36:01 10° 216° (SW) 3,377 - -21.1°
Exits shadow 22:38:47 23° 201° (SSW) 2,833 9.4 -21.2°
Maximum altitude 22:44:06 39° 150° (SSE) 2,725 9.3 -21.4°
Drops below altitude 10° 22:58:44 10° 90° (E) 6,048 11.5 -21.9°
Sets 23:04:59 0° 85° (E) 7,600 12.1 -22.1°
